Time,TemperatureF,DewpointF,PressureIn,WindDirection,WindDirectionDegrees,WindSpeedMPH,WindSpeedGustMPH,Humidity,HourlyPrecipIn,Conditions,Clouds,dailyrainin,SoftwareType,DateUTC
2013-07-22 00:02:00,63.1,57.5,29.84,NW,315,0.0,0.0,82,0.00,,,0.00,WUHU21623XXSP,2013-07-22 07:02:00,
2013-07-22 00:07:00,63.1,57.9,29.83,South,180,0.0,0.0,83,0.00,,,0.00,WUHU21623XXSP,2013-07-22 07:07:00,
2013-07-22 00:12:00,63.3,58.7,29.84,SE,135,0.0,0.0,85,0.00,,,0.00,WUHU21623XXSP,2013-07-22 07:12:00,
2013-07-22 00:17:00,63.0,58.7,29.84,ESE,112,0.0,0.0,86,0.00,,,0.00,WUHU21623XXSP,2013-07-22 07:17:00,
2013-07-22 00:22:00,62.8,58.5,29.84,NE,45,0.0,0.0,86,0.00,,,0.00,WUHU21623XXSP,2013-07-22 07:22:00,
2013-07-22 00:27:00,63.7,59.4,29.84,NE,45,0.0,0.0,86,0.00,,,0.00,WUHU21623XXSP,2013-07-22 07:27:00,
2013-07-22 00:32:00,62.8,59.9,29.84,NE,45,0.0,0.0,90,0.00,,,0.00,WUHU21623XXSP,2013-07-22 07:32:00,
2013-07-22 00:37:00,63.1,59.9,29.84,NNE,22,0.0,0.0,89,0.00,,,0.00,WUHU21623XXSP,2013-07-22 07:37:00,
2013-07-22 00:42:00,63.0,60.1,29.84,NNE,22,0.0,0.0,90,0.00,,,0.00,WUHU21623XXSP,2013-07-22 07:42:00,
2013-07-22 00:47:00,63.7,60.5,29.85,NNE,22,0.0,0.0,89,0.00,,,0.00,WUHU21623XXSP,2013-07-22 07:47:00,
2013-07-22 00:52:00,63.1,59.9,29.85,WNW,292,0.0,0.0,89,0.00,,,0.00,WUHU21623XXSP,2013-07-22 07:52:00,
2013-07-22 00:57:00,63.5,60.6,29.85,North,0,0.0,0.0,90,0.00,,,0.00,WUHU21623XXSP,2013-07-22 07:57:00,
2013-07-22 01:02:00,63.7,61.1,29.85,NNW,337,0.0,0.0,91,0.00,,,0.00,WUHU21623XXSP,2013-07-22 08:02:00,
2013-07-22 01:07:00,63.5,61.2,29.85,North,0,0.0,0.0,92,0.00,,,0.00,WUHU21623XXSP,2013-07-22 08:07:00,
2013-07-22 01:12:00,62.8,61.1,29.85,West,270,0.0,0.0,94,0.00,,,0.00,WUHU21623XXSP,2013-07-22 08:12:00,
2013-07-22 01:17:00,62.8,60.8,29.85,WNW,292,0.0,0.0,93,0.00,,,0.00,WUHU21623XXSP,2013-07-22 08:17:00,
2013-07-22 01:22:00,63.3,61.0,29.85,NW,315,0.0,0.0,92,0.00,,,0.00,WUHU21623XXSP,2013-07-22 08:22:00,
2013-07-22 01:27:00,62.8,61.6,29.84,NW,315,0.0,0.0,96,0.00,,,0.00,WUHU21623XXSP,2013-07-22 08:27:00,
2013-07-22 01:32:00,63.3,61.9,29.84,North,0,0.0,0.0,95,0.00,,,0.00,WUHU21623XXSP,2013-07-22 08:32:00,
2013-07-22 01:37:00,63.0,61.8,29.85,NW,315,0.0,0.0,96,0.00,,,0.00,WUHU21623XXSP,2013-07-22 08:37:00,
2013-07-22 01:42:00,63.1,61.4,29.85,NW,315,0.0,0.0,94,0.00,,,0.00,WUHU21623XXSP,2013-07-22 08:42:00,
2013-07-22 01:47:00,63.0,62.4,29.84,NNW,337,0.0,0.0,98,0.00,,,0.00,WUHU21623XXSP,2013-07-22 08:47:00,
2013-07-22 01:52:00,63.0,62.4,29.84,NNW,337,0.0,0.0,98,0.00,,,0.00,WUHU21623XXSP,2013-07-22 08:52:00,
2013-07-22 01:57:00,63.1,62.4,29.85,NNW,337,0.0,0.0,98,0.00,,,0.00,WUHU21623XXSP,2013-07-22 08:57:00,
2013-07-22 02:02:00,63.1,62.6,29.85,North,0,0.0,0.0,98,0.00,,,0.00,WUHU21623XXSP,2013-07-22 09:02:00,
2013-07-22 02:07:00,63.0,62.4,29.85,NE,45,0.0,0.0,98,0.00,,,0.00,WUHU21623XXSP,2013-07-22 09:07:00,
2013-07-22 02:12:00,63.0,62.7,29.85,NNE,22,0.0,0.0,99,0.00,,,0.00,WUHU21623XXSP,2013-07-22 09:12:00,
2013-07-22 02:17:00,62.8,62.5,29.85,NNE,22,0.0,0.0,99,0.00,,,0.00,WUHU21623XXSP,2013-07-22 09:17:00,
2013-07-22 02:22:00,63.1,62.9,29.86,North,0,0.0,0.0,99,0.00,,,0.00,WUHU21623XXSP,2013-07-22 09:22:00,
2013-07-22 02:27:00,63.1,62.9,29.85,NNW,337,0.0,0.0,99,0.00,,,0.00,WUHU21623XXSP,2013-07-22 09:27:00,
2013-07-22 02:32:00,63.0,62.7,29.85,NNE,22,0.0,0.0,99,0.00,,,0.00,WUHU21623XXSP,2013-07-22 09:32:00,
2013-07-22 02:37:00,63.1,62.9,29.85,North,0,0.0,0.0,99,0.00,,,0.00,WUHU21623XXSP,2013-07-22 09:37:00,
2013-07-22 02:42:00,63.1,62.9,29.86,North,0,0.0,0.0,99,0.00,,,0.00,WUHU21623XXSP,2013-07-22 09:42:00,
2013-07-22 02:47:00,63.1,62.9,29.85,North,0,0.0,0.0,99,0.00,,,0.00,WUHU21623XXSP,2013-07-22 09:47:00,
2013-07-22 02:52:00,63.1,62.9,29.86,North,0,0.0,0.0,99,0.00,,,0.00,WUHU21623XXSP,2013-07-22 09:52:00,
2013-07-22 02:57:00,63.1,62.9,29.86,North,0,0.0,0.0,99,0.00,,,0.00,WUHU21623XXSP,2013-07-22 09:57:00,
2013-07-22 03:02:00,63.1,62.9,29.86,NNW,337,0.0,0.0,99,0.00,,,0.00,WUHU21623XXSP,2013-07-22 10:02:00,
2013-07-22 03:07:00,63.1,62.9,29.86,NNW,337,0.0,0.0,99,0.00,,,0.00,WUHU21623XXSP,2013-07-22 10:07:00,
2013-07-22 03:12:00,63.1,62.9,29.86,NNW,337,0.0,0.0,99,0.00,,,0.00,WUHU21623XXSP,2013-07-22 10:12:00,
2013-07-22 03:17:00,63.1,63.0,29.86,NNW,337,0.0,0.0,99,0.00,,,0.00,WUHU21623XXSP,2013-07-22 10:17:00,
2013-07-22 03:22:00,63.3,63.0,29.85,NNE,22,0.0,0.0,99,0.00,,,0.00,WUHU21623XXSP,2013-07-22 10:22:00,
2013-07-22 03:27:00,63.3,63.0,29.85,NNW,337,0.0,0.9,99,0.00,,,0.00,WUHU21623XXSP,2013-07-22 10:27:00,
2013-07-22 03:32:00,63.7,63.4,29.85,NNW,337,0.0,0.9,99,0.00,,,0.00,WUHU21623XXSP,2013-07-22 10:32:00,
2013-07-22 03:37:00,63.3,63.0,29.85,NNW,337,0.0,0.0,99,0.00,,,0.00,WUHU21623XXSP,2013-07-22 10:37:00,
2013-07-22 03:42:00,64.0,63.8,29.85,SSE,157,0.0,1.3,99,0.00,,,0.00,WUHU21623XXSP,2013-07-22 10:42:00,
2013-07-22 03:47:00,63.5,63.2,29.85,NNW,337,1.1,1.3,99,0.00,,,0.00,WUHU21623XXSP,2013-07-22 10:47:00,
2013-07-22 03:52:00,64.2,63.9,29.85,WNW,292,0.0,1.1,99,0.00,,,0.00,WUHU21623XXSP,2013-07-22 10:52:00,
2013-07-22 03:57:00,64.0,63.8,29.85,NW,315,0.0,0.0,99,0.00,,,0.00,WUHU21623XXSP,2013-07-22 10:57:00,
2013-07-22 04:02:00,63.5,63.2,29.85,NW,315,0.0,0.0,99,0.00,,,0.00,WUHU21623XXSP,2013-07-22 11:02:00,
2013-07-22 04:07:00,64.2,63.9,29.85,NW,315,0.0,0.0,99,0.00,,,0.00,WUHU21623XXSP,2013-07-22 11:07:00,
2013-07-22 04:12:00,64.0,63.8,29.85,WSW,247,0.0,0.0,99,0.00,,,0.00,WUHU21623XXSP,2013-07-22 11:12:00,
2013-07-22 04:17:00,63.3,63.0,29.85,SW,225,0.0,0.0,99,0.00,,,0.00,WUHU21623XXSP,2013-07-22 11:17:00,
2013-07-22 04:22:00,63.9,63.6,29.85,South,180,0.0,0.0,99,0.00,,,0.00,WUHU21623XXSP,2013-07-22 11:22:00,
2013-07-22 04:27:00,64.0,63.8,29.85,SSE,157,0.0,0.0,99,0.00,,,0.00,WUHU21623XXSP,2013-07-22 11:27:00,
2013-07-22 04:32:00,63.7,63.4,29.85,SSE,157,0.0,0.0,99,0.00,,,0.00,WUHU21623XXSP,2013-07-22 11:32:00,
2013-07-22 04:37:00,63.9,63.6,29.85,ESE,112,0.0,1.1,99,0.00,,,0.00,WUHU21623XXSP,2013-07-22 11:37:00,
2013-07-22 04:42:00,63.9,63.6,29.85,SSE,157,0.0,1.1,99,0.00,,,0.00,WUHU21623XXSP,2013-07-22 11:42:00,
2013-07-22 04:47:00,63.5,63.2,29.85,SE,135,0.0,1.3,99,0.00,,,0.00,WUHU21623XXSP,2013-07-22 11:47:00,
2013-07-22 04:52:00,63.7,63.4,29.85,SE,135,0.0,1.3,99,0.00,,,0.00,WUHU21623XXSP,2013-07-22 11:52:00,
2013-07-22 04:57:00,63.7,63.4,29.85,SE,135,0.0,1.1,99,0.00,,,0.00,WUHU21623XXSP,2013-07-22 11:57:00,
2013-07-22 05:02:00,63.7,63.4,29.85,ESE,112,0.0,1.1,99,0.00,,,0.00,WUHU21623XXSP,2013-07-22 12:02:00,
2013-07-22 05:07:00,63.5,63.2,29.86,ENE,67,0.0,0.0,99,0.00,,,0.00,WUHU21623XXSP,2013-07-22 12:07:00,
2013-07-22 05:12:00,63.7,63.4,29.86,ESE,112,0.0,0.0,99,0.00,,,0.00,WUHU21623XXSP,2013-07-22 12:12:00,
2013-07-22 05:17:00,63.7,63.4,29.85,ESE,112,0.0,0.0,99,0.00,,,0.00,WUHU21623XXSP,2013-07-22 12:17:00,
2013-07-22 05:22:00,63.5,63.2,29.86,ESE,112,0.0,0.0,99,0.00,,,0.00,WUHU21623XXSP,2013-07-22 12:22:00,
2013-07-22 05:27:00,63.3,63.0,29.86,North,0,0.0,0.0,99,0.00,,,0.00,WUHU21623XXSP,2013-07-22 12:27:00,
2013-07-22 05:32:00,63.3,63.0,29.86,SW,225,0.0,0.0,99,0.00,,,0.00,WUHU21623XXSP,2013-07-22 12:32:00,
2013-07-22 05:37:00,63.5,63.0,29.86,SSE,157,0.0,0.0,99,0.00,,,0.00,WUHU21623XXSP,2013-07-22 12:37:00,
2013-07-22 05:42:00,63.1,62.9,29.86,SSE,157,0.0,0.0,99,0.00,,,0.00,WUHU21623XXSP,2013-07-22 12:42:00,
2013-07-22 05:47:00,62.8,62.5,29.86,SSE,157,0.0,0.0,99,0.00,,,0.00,WUHU21623XXSP,2013-07-22 12:47:00,
2013-07-22 05:52:00,62.4,62.1,29.86,SSE,157,0.0,0.0,99,0.00,,,0.00,WUHU21623XXSP,2013-07-22 12:52:00,
2013-07-22 05:57:00,62.4,62.1,29.87,SSE,157,0.0,0.0,99,0.00,,,0.00,WUHU21623XXSP,2013-07-22 12:57:00,
2013-07-22 06:02:00,62.6,62.3,29.87,South,180,0.0,0.0,99,0.00,,,0.00,WUHU21623XXSP,2013-07-22 13:02:00,
2013-07-22 06:07:00,62.4,62.1,29.87,SW,225,0.0,0.0,99,0.00,,,0.00,WUHU21623XXSP,2013-07-22 13:07:00,
2013-07-22 06:12:00,62.6,62.3,29.87,South,180,0.0,0.0,99,0.00,,,0.00,WUHU21623XXSP,2013-07-22 13:12:00,
2013-07-22 06:17:00,62.6,62.3,29.87,West,270,0.0,0.0,99,0.00,,,0.00,WUHU21623XXSP,2013-07-22 13:17:00,
2013-07-22 06:22:00,62.8,62.5,29.87,NNW,337,0.0,0.0,99,0.00,,,0.00,WUHU21623XXSP,2013-07-22 13:22:00,
2013-07-22 06:27:00,62.6,62.3,29.87,WNW,292,1.8,1.8,99,0.00,,,0.00,WUHU21623XXSP,2013-07-22 13:27:00,
2013-07-22 06:32:00,62.8,62.3,29.87,NNW,337,0.0,1.8,99,0.00,,,0.00,WUHU21623XXSP,2013-07-22 13:32:00,
2013-07-22 06:37:00,62.8,62.5,29.87,WNW,292,0.0,0.7,99,0.00,,,0.00,WUHU21623XXSP,2013-07-22 13:37:00,
2013-07-22 06:42:00,62.8,62.5,29.88,NW,315,0.0,0.7,99,0.00,,,0.00,WUHU21623XXSP,2013-07-22 13:42:00,
2013-07-22 06:47:00,62.8,62.5,29.88,NNE,22,0.0,0.0,99,0.00,,,0.00,WUHU21623XXSP,2013-07-22 13:47:00,
2013-07-22 06:52:00,62.8,62.5,29.88,NW,315,0.0,0.0,99,0.00,,,0.00,WUHU21623XXSP,2013-07-22 13:52:00,
2013-07-22 06:57:00,62.8,62.5,29.88,SSW,202,0.0,0.0,99,0.00,,,0.00,WUHU21623XXSP,2013-07-22 13:57:00,
2013-07-22 07:02:00,62.8,62.5,29.88,SW,225,0.0,0.0,99,0.00,,,0.00,WUHU21623XXSP,2013-07-22 14:02:00,
2013-07-22 07:07:00,62.8,62.5,29.88,WSW,247,0.0,0.0,99,0.00,,,0.00,WUHU21623XXSP,2013-07-22 14:07:00,
2013-07-22 07:12:00,63.0,62.7,29.88,South,180,0.0,0.0,99,0.00,,,0.00,WUHU21623XXSP,2013-07-22 14:12:00,
2013-07-22 07:17:00,63.0,62.7,29.88,West,270,0.0,0.0,99,0.00,,,0.00,WUHU21623XXSP,2013-07-22 14:17:00,
2013-07-22 07:22:00,63.0,62.7,29.88,NW,315,0.0,0.0,99,0.00,,,0.00,WUHU21623XXSP,2013-07-22 14:22:00,
2013-07-22 07:27:00,63.0,62.7,29.88,North,0,0.0,0.9,99,0.00,,,0.00,WUHU21623XXSP,2013-07-22 14:27:00,
2013-07-22 07:32:00,62.8,62.5,29.88,WNW,292,0.9,0.9,99,0.00,,,0.00,WUHU21623XXSP,2013-07-22 14:32:00,
2013-07-22 07:37:00,63.0,62.7,29.88,SSW,202,0.0,0.9,99,0.00,,,0.00,WUHU21623XXSP,2013-07-22 14:37:00,
2013-07-22 07:42:00,63.0,62.7,29.88,NNW,337,0.7,0.7,99,0.00,,,0.00,WUHU21623XXSP,2013-07-22 14:42:00,
2013-07-22 07:47:00,63.0,62.7,29.88,NW,315,1.1,1.1,99,0.00,,,0.00,WUHU21623XXSP,2013-07-22 14:47:00,
2013-07-22 07:52:00,63.0,62.7,29.89,NNW,337,1.6,1.6,99,0.00,,,0.00,WUHU21623XXSP,2013-07-22 14:52:00,
2013-07-22 07:57:00,62.8,62.5,29.89,WNW,292,4.5,4.5,99,0.00,,,0.00,WUHU21623XXSP,2013-07-22 14:57:00,
2013-07-22 08:02:00,63.0,62.7,29.89,West,270,2.5,4.5,99,0.00,,,0.00,WUHU21623XXSP,2013-07-22 15:02:00,
2013-07-22 08:07:00,63.0,62.7,29.89,WNW,292,1.3,3.1,99,0.00,,,0.00,WUHU21623XXSP,2013-07-22 15:07:00,
2013-07-22 08:12:00,63.0,62.9,29.89,WNW,292,1.3,3.1,99,0.00,,,0.00,WUHU21623XXSP,2013-07-22 15:12:00,
2013-07-22 08:22:00,63.1,62.9,29.89,WSW,247,1.1,1.1,99,0.00,,,0.00,WUHU21623XXSP,2013-07-22 15:22:00,
2013-07-22 08:27:00,63.1,62.9,29.89,WNW,292,0.0,1.1,99,0.00,,,0.00,WUHU21623XXSP,2013-07-22 15:27:00,
2013-07-22 08:32:00,63.1,62.9,29.90,WNW,292,1.8,1.8,99,0.00,,,0.00,WUHU21623XXSP,2013-07-22 15:32:00,
2013-07-22 08:38:00,63.3,63.0,29.89,NNW,337,1.6,2.2,99,0.00,,,0.00,WUHU21623XXSP,2013-07-22 15:38:00,
2013-07-22 08:43:00,63.1,62.9,29.90,WNW,292,0.9,2.2,99,0.00,,,0.00,WUHU21623XXSP,2013-07-22 15:43:00,
2013-07-22 08:48:00,63.3,63.0,29.89,WSW,247,1.1,1.1,99,0.00,,,0.00,WUHU21623XXSP,2013-07-22 15:48:00,
2013-07-22 08:53:00,63.5,63.2,29.90,NW,315,4.0,4.0,99,0.00,,,0.00,WUHU21623XXSP,2013-07-22 15:53:00,
2013-07-22 08:58:00,63.5,63.2,29.90,WNW,292,0.9,4.0,99,0.00,,,0.00,WUHU21623XXSP,2013-07-22 15:58:00,
2013-07-22 09:03:00,63.7,63.4,29.90,WSW,247,4.0,4.0,99,0.00,,,0.00,WUHU21623XXSP,2013-07-22 16:03:00,
2013-07-22 09:08:00,64.0,63.6,29.90,WNW,292,3.6,4.0,99,0.00,,,0.00,WUHU21623XXSP,2013-07-22 16:08:00,
2013-07-22 09:13:00,64.0,63.8,29.90,West,270,0.0,3.6,99,0.00,,,0.00,WUHU21623XXSP,2013-07-22 16:13:00,
2013-07-22 09:18:00,64.0,63.8,29.90,WNW,292,0.9,1.1,99,0.00,,,0.00,WUHU21623XXSP,2013-07-22 16:18:00,
2013-07-22 09:23:00,64.2,63.6,29.90,WNW,292,1.3,4.0,98,0.00,,,0.00,WUHU21623XXSP,2013-07-22 16:23:00,
2013-07-22 09:28:00,64.2,63.4,29.90,SW,225,0.0,4.0,97,0.00,,,0.00,WUHU21623XXSP,2013-07-22 16:28:00,
2013-07-22 09:33:00,64.6,63.4,29.90,NW,315,2.0,2.0,97,0.00,,,0.00,WUHU21623XXSP,2013-07-22 16:33:00,
2013-07-22 09:43:00,64.8,63.1,29.90,WNW,292,1.8,1.8,95,0.00,,,0.00,WUHU21623XXSP,2013-07-22 16:43:00,
2013-07-22 09:48:00,64.9,63.2,29.89,WNW,292,3.4,3.4,94,0.00,,,0.00,WUHU21623XXSP,2013-07-22 16:48:00,
2013-07-22 09:53:00,65.1,63.0,29.89,WNW,292,4.5,4.5,93,0.00,,,0.00,WUHU21623XXSP,2013-07-22 16:53:00,
2013-07-22 09:58:00,65.3,62.9,29.89,WNW,292,1.1,4.5,92,0.00,,,0.00,WUHU21623XXSP,2013-07-22 16:58:00,
2013-07-22 10:03:00,65.7,62.9,29.89,West,270,2.2,3.1,91,0.00,,,0.00,WUHU21623XXSP,2013-07-22 17:03:00,
2013-07-22 10:08:00,66.0,63.0,29.89,WNW,292,5.4,5.4,90,0.00,,,0.00,WUHU21623XXSP,2013-07-22 17:08:00,
2013-07-22 10:13:00,66.4,62.7,29.89,WNW,292,0.0,5.4,88,0.00,,,0.00,WUHU21623XXSP,2013-07-22 17:13:00,
2013-07-22 10:18:00,66.7,62.4,29.89,NW,315,2.0,2.9,86,0.00,,,0.00,WUHU21623XXSP,2013-07-22 17:18:00,
2013-07-22 10:23:00,66.9,62.2,29.89,West,270,3.6,3.6,85,0.00,,,0.00,WUHU21623XXSP,2013-07-22 17:23:00,
2013-07-22 10:28:00,67.3,62.3,29.88,WNW,292,2.2,3.6,84,0.00,,,0.00,WUHU21623XXSP,2013-07-22 17:28:00,
2013-07-22 10:33:00,67.8,61.8,29.88,NW,315,0.0,2.2,81,0.00,,,0.00,WUHU21623XXSP,2013-07-22 17:33:00,
2013-07-22 10:38:00,67.8,61.1,29.88,West,270,1.6,3.6,79,0.00,,,0.00,WUHU21623XXSP,2013-07-22 17:38:00,
2013-07-22 10:43:00,68.2,61.1,29.88,NW,315,2.0,3.6,78,0.00,,,0.00,WUHU21623XXSP,2013-07-22 17:43:00,
2013-07-22 10:48:00,68.7,60.8,29.88,SSW,202,2.2,2.2,76,0.00,,,0.00,WUHU21623XXSP,2013-07-22 17:48:00,
2013-07-22 10:53:00,69.1,60.4,29.88,West,270,1.1,2.2,74,0.00,,,0.00,WUHU21623XXSP,2013-07-22 17:53:00,
2013-07-22 10:58:00,69.4,60.4,29.88,West,270,1.1,2.2,73,0.00,,,0.00,WUHU21623XXSP,2013-07-22 17:58:00,
2013-07-22 11:03:00,70.0,60.1,29.88,WSW,247,0.0,4.5,71,0.00,,,0.00,WUHU21623XXSP,2013-07-22 18:03:00,
2013-07-22 11:08:00,70.3,59.6,29.89,NNE,22,0.9,4.5,69,0.00,,,0.00,WUHU21623XXSP,2013-07-22 18:08:00,
2013-07-22 11:13:00,70.5,59.0,29.88,North,0,1.8,1.8,67,0.00,,,0.00,WUHU21623XXSP,2013-07-22 18:13:00,
2013-07-22 11:18:00,71.2,58.0,29.88,NE,45,1.1,2.5,63,0.00,,,0.00,WUHU21623XXSP,2013-07-22 18:18:00,
2013-07-22 11:23:00,71.8,57.6,29.88,WNW,292,0.0,2.5,61,0.00,,,0.00,WUHU21623XXSP,2013-07-22 18:23:00,
2013-07-22 11:28:00,72.1,57.5,29.88,West,270,1.3,4.5,60,0.00,,,0.00,WUHU21623XXSP,2013-07-22 18:28:00,
2013-07-22 11:33:00,73.0,56.8,29.88,SSW,202,3.1,4.5,57,0.00,,,0.00,WUHU21623XXSP,2013-07-22 18:33:00,
2013-07-22 11:38:00,73.6,56.3,29.87,South,180,1.3,3.1,55,0.00,,,0.00,WUHU21623XXSP,2013-07-22 18:38:00,
2013-07-22 11:43:00,73.8,55.5,29.87,SSW,202,2.7,2.9,53,0.00,,,0.00,WUHU21623XXSP,2013-07-22 18:43:00,
2013-07-22 11:48:00,74.3,55.0,29.87,WNW,292,2.7,2.9,51,0.00,,,0.00,WUHU21623XXSP,2013-07-22 18:48:00,
2013-07-22 11:53:00,74.8,54.4,29.87,NNW,337,1.1,2.9,49,0.00,,,0.00,WUHU21623XXSP,2013-07-22 18:53:00,
2013-07-22 11:58:00,75.4,54.3,29.86,NW,315,1.8,2.2,48,0.00,,,0.00,WUHU21623XXSP,2013-07-22 18:58:00,
2013-07-22 12:04:00,75.9,53.6,29.87,West,270,4.7,4.7,46,0.00,,,0.00,WUHU21623XXSP,2013-07-22 19:04:00,
2013-07-22 12:09:00,76.3,53.3,29.87,SW,225,3.4,4.7,45,0.00,,,0.00,WUHU21623XXSP,2013-07-22 19:09:00,
2013-07-22 12:14:00,76.8,53.8,29.86,SSW,202,0.0,5.6,45,0.00,,,0.00,WUHU21623XXSP,2013-07-22 19:14:00,
2013-07-22 12:19:00,77.0,54.0,29.86,West,270,0.9,5.6,45,0.00,,,0.00,WUHU21623XXSP,2013-07-22 19:19:00,
2013-07-22 12:24:00,77.4,53.7,29.86,SW,225,1.6,2.5,44,0.00,,,0.00,WUHU21623XXSP,2013-07-22 19:24:00,
2013-07-22 12:29:00,77.5,53.8,29.86,WNW,292,3.8,3.8,44,0.00,,,0.00,WUHU21623XXSP,2013-07-22 19:29:00,
2013-07-22 12:34:00,77.7,53.4,29.86,WNW,292,2.2,3.8,43,0.00,,,0.00,WUHU21623XXSP,2013-07-22 19:34:00,
2013-07-22 12:40:00,78.1,53.1,29.85,NE,45,0.9,2.2,42,0.00,,,0.00,WUHU21623XXSP,2013-07-22 19:40:00,
2013-07-22 12:45:00,78.4,52.8,29.86,NW,315,5.8,5.8,41,0.00,,,0.00,WUHU21623XXSP,2013-07-22 19:45:00,
2013-07-22 12:50:00,78.6,53.0,29.85,NW,315,0.0,5.8,41,0.00,,,0.00,WUHU21623XXSP,2013-07-22 19:50:00,
2013-07-22 12:55:00,78.6,53.0,29.86,NNE,22,0.0,4.3,41,0.00,,,0.00,WUHU21623XXSP,2013-07-22 19:55:00,
2013-07-22 13:00:00,79.0,53.3,29.85,WSW,247,0.0,0.0,41,0.00,,,0.00,WUHU21623XXSP,2013-07-22 20:00:00,
2013-07-22 13:05:00,79.5,53.2,29.85,WNW,292,2.0,2.0,40,0.00,,,0.00,WUHU21623XXSP,2013-07-22 20:05:00,
2013-07-22 13:10:00,79.7,53.9,29.85,NW,315,2.7,2.7,41,0.00,,,0.00,WUHU21623XXSP,2013-07-22 20:10:00,
2013-07-22 13:15:00,80.2,53.8,29.85,West,270,1.1,2.7,40,0.00,,,0.00,WUHU21623XXSP,2013-07-22 20:15:00,
2013-07-22 13:20:00,80.4,53.2,29.84,SSW,202,2.5,18.6,39,0.00,,,0.00,WUHU21623XXSP,2013-07-22 20:20:00,
2013-07-22 13:25:00,80.8,52.7,29.85,SSE,157,0.0,18.6,38,0.00,,,0.00,WUHU21623XXSP,2013-07-22 20:25:00,
2013-07-22 13:30:00,81.1,53.1,29.85,SSE,157,0.0,13.2,38,0.00,,,0.00,WUHU21623XXSP,2013-07-22 20:30:00,
2013-07-22 13:35:00,81.3,53.2,29.84,WNW,292,1.1,13.2,38,0.00,,,0.00,WUHU21623XXSP,2013-07-22 20:35:00,
2013-07-22 13:40:00,81.5,52.6,29.84,SSW,202,1.1,9.2,37,0.00,,,0.00,WUHU21623XXSP,2013-07-22 20:40:00,
2013-07-22 13:45:00,81.7,52.8,29.84,SSW,202,2.9,2.9,37,0.00,,,0.00,WUHU21623XXSP,2013-07-22 20:45:00,
2013-07-22 13:50:00,81.9,52.9,29.84,SW,225,6.5,6.5,37,0.00,,,0.00,WUHU21623XXSP,2013-07-22 20:50:00,
2013-07-22 13:55:00,82.2,53.2,29.84,South,180,0.0,6.5,37,0.00,,,0.00,WUHU21623XXSP,2013-07-22 20:55:00,
2013-07-22 14:00:00,82.4,53.4,29.84,South,180,4.5,4.5,37,0.00,,,0.00,WUHU21623XXSP,2013-07-22 21:00:00,
2013-07-22 14:05:00,82.9,52.3,29.84,WNW,292,3.8,4.5,35,0.00,,,0.00,WUHU21623XXSP,2013-07-22 21:05:00,
2013-07-22 14:10:00,83.1,54.0,29.84,WSW,247,6.9,6.9,37,0.00,,,0.00,WUHU21623XXSP,2013-07-22 21:10:00,
2013-07-22 14:15:00,83.1,54.0,29.84,WSW,247,2.5,6.9,37,0.00,,,0.00,WUHU21623XXSP,2013-07-22 21:15:00,
2013-07-22 14:20:00,83.1,54.0,29.84,South,180,4.3,4.3,37,0.00,,,0.00,WUHU21623XXSP,2013-07-22 21:20:00,
2013-07-22 14:25:00,83.3,54.2,29.85,SE,135,5.4,5.4,37,0.00,,,0.00,WUHU21623XXSP,2013-07-22 21:25:00,
2013-07-22 14:30:00,83.5,55.1,29.84,South,180,0.0,5.4,38,0.00,,,0.00,WUHU21623XXSP,2013-07-22 21:30:00,
2013-07-22 14:35:00,83.3,55.8,29.84,WNW,292,2.9,4.9,39,0.00,,,0.00,WUHU21623XXSP,2013-07-22 21:35:00,
2013-07-22 14:40:00,83.5,55.9,29.84,WNW,292,1.1,3.8,39,0.00,,,0.00,WUHU21623XXSP,2013-07-22 21:40:00,
2013-07-22 14:45:00,83.5,55.9,29.84,SSE,157,1.3,2.5,39,0.00,,,0.00,WUHU21623XXSP,2013-07-22 21:45:00,
2013-07-22 14:50:00,83.5,55.9,29.84,West,270,3.6,3.6,39,0.00,,,0.00,WUHU21623XXSP,2013-07-22 21:50:00,
2013-07-22 14:55:00,83.5,55.9,29.84,SW,225,3.8,3.8,39,0.00,,,0.00,WUHU21623XXSP,2013-07-22 21:55:00,
2013-07-22 15:00:00,83.7,56.1,29.84,SW,225,1.1,4.7,39,0.00,,,0.00,WUHU21623XXSP,2013-07-22 22:00:00,
2013-07-22 15:05:00,83.8,56.3,29.84,WNW,292,5.1,5.1,39,0.00,,,0.00,WUHU21623XXSP,2013-07-22 22:05:00,
2013-07-22 15:10:00,83.7,55.3,29.84,SSE,157,1.3,5.1,38,0.00,,,0.00,WUHU21623XXSP,2013-07-22 22:10:00,
2013-07-22 15:15:00,83.7,56.1,29.84,SW,225,1.6,5.4,39,0.00,,,0.00,WUHU21623XXSP,2013-07-22 22:15:00,
2013-07-22 15:20:00,83.5,55.9,29.85,WSW,247,6.7,6.7,39,0.00,,,0.00,WUHU21623XXSP,2013-07-22 22:20:00,
2013-07-22 15:25:00,83.3,55.8,29.85,SW,225,3.8,6.7,39,0.00,,,0.00,WUHU21623XXSP,2013-07-22 22:25:00,
2013-07-22 15:30:00,83.1,55.6,29.85,SW,225,2.2,6.5,39,0.00,,,0.00,WUHU21623XXSP,2013-07-22 22:30:00,
2013-07-22 15:35:00,82.9,54.7,29.84,SSW,202,2.7,6.5,38,0.00,,,0.00,WUHU21623XXSP,2013-07-22 22:35:00,
2013-07-22 15:40:00,82.9,55.5,29.85,NW,315,5.1,5.6,39,0.00,,,0.00,WUHU21623XXSP,2013-07-22 22:40:00,
2013-07-22 15:45:00,82.6,55.1,29.85,WNW,292,2.5,5.6,39,0.00,,,0.00,WUHU21623XXSP,2013-07-22 22:45:00,
2013-07-22 15:50:00,82.2,54.8,29.85,West,270,0.9,5.4,39,0.00,,,0.00,WUHU21623XXSP,2013-07-22 22:50:00,
2013-07-22 15:55:00,82.0,53.9,29.85,WNW,292,8.5,8.5,38,0.00,,,0.00,WUHU21623XXSP,2013-07-22 22:55:00,
2013-07-22 16:00:00,81.7,53.5,29.85,West,270,2.0,8.5,39,0.00,,,0.00,WUHU21623XXSP,2013-07-22 23:00:00,
2013-07-22 16:05:00,81.3,54.0,29.85,SSW,202,2.0,4.7,39,0.00,,,0.00,WUHU21623XXSP,2013-07-22 23:05:00,
2013-07-22 16:10:00,81.1,53.8,29.85,WSW,247,0.0,4.7,39,0.00,,,0.00,WUHU21623XXSP,2013-07-22 23:10:00,
2013-07-22 16:15:00,80.8,53.7,29.85,West,270,2.2,3.8,39,0.00,,,0.00,WUHU21623XXSP,2013-07-22 23:15:00,
2013-07-22 16:20:00,80.2,53.0,29.85,West,270,1.6,2.7,39,0.00,,,0.00,WUHU21623XXSP,2013-07-22 23:20:00,
2013-07-22 16:25:00,80.1,52.9,29.85,South,180,2.5,2.7,39,0.00,,,0.00,WUHU21623XXSP,2013-07-22 23:25:00,
2013-07-22 16:30:00,79.5,53.2,29.85,SE,135,2.0,2.5,40,0.00,,,0.00,WUHU21623XXSP,2013-07-22 23:30:00,
2013-07-22 16:35:00,79.2,52.8,29.85,NNW,337,4.3,4.3,40,0.00,,,0.00,WUHU21623XXSP,2013-07-22 23:35:00,
2013-07-22 16:40:00,78.6,53.0,29.85,WNW,292,4.7,4.7,41,0.00,,,0.00,WUHU21623XXSP,2013-07-22 23:40:00,
2013-07-22 16:45:00,77.7,52.5,29.85,WNW,292,4.7,4.7,41,0.00,,,0.00,WUHU21623XXSP,2013-07-22 23:45:00,
2013-07-22 16:50:00,77.5,52.6,29.85,WNW,292,6.0,6.0,42,0.00,,,0.00,WUHU21623XXSP,2013-07-22 23:50:00,
2013-07-22 16:55:00,77.2,52.3,29.85,West,270,2.0,6.0,42,0.00,,,0.00,WUHU21623XXSP,2013-07-22 23:55:00,
2013-07-22 17:00:00,76.6,51.8,29.85,West,270,1.1,3.6,42,0.00,,,0.00,WUHU21623XXSP,2013-07-23 00:00:00,
2013-07-22 17:05:00,76.5,51.6,29.85,WNW,292,4.7,4.7,42,0.00,,,0.00,WUHU21623XXSP,2013-07-23 00:05:00,
2013-07-22 17:10:00,76.1,51.3,29.85,West,270,2.5,4.7,42,0.00,,,0.00,WUHU21623XXSP,2013-07-23 00:10:00,
2013-07-22 17:15:00,75.9,51.2,29.85,West,270,1.8,3.1,42,0.00,,,0.00,WUHU21623XXSP,2013-07-23 00:15:00,
2013-07-22 17:20:00,75.7,51.0,29.85,WSW,247,4.7,5.4,42,0.00,,,0.00,WUHU21623XXSP,2013-07-23 00:20:00,
2013-07-22 17:25:00,75.4,50.7,29.85,NNW,337,3.8,5.4,42,0.00,,,0.00,WUHU21623XXSP,2013-07-23 00:25:00,
2013-07-22 17:30:00,75.0,50.9,29.85,SW,225,4.0,7.2,43,0.00,,,0.00,WUHU21623XXSP,2013-07-23 00:30:00,
2013-07-22 17:35:00,75.0,50.9,29.85,West,270,4.3,7.2,43,0.00,,,0.00,WUHU21623XXSP,2013-07-23 00:35:00,
2013-07-22 17:40:00,74.8,50.8,29.85,SSE,157,0.7,4.3,43,0.00,,,0.00,WUHU21623XXSP,2013-07-23 00:40:00,
2013-07-22 17:45:00,74.7,51.2,29.85,West,270,2.5,2.5,44,0.00,,,0.00,WUHU21623XXSP,2013-07-23 00:45:00,
2013-07-22 17:50:00,74.3,50.9,29.86,WNW,292,2.2,2.5,44,0.00,,,0.00,WUHU21623XXSP,2013-07-23 00:50:00,
2013-07-22 17:55:00,73.9,50.5,29.85,SSW,202,0.0,2.2,44,0.00,,,0.00,WUHU21623XXSP,2013-07-23 00:55:00,
2013-07-22 18:00:00,73.8,51.0,29.86,SW,225,1.1,4.5,45,0.00,,,0.00,WUHU21623XXSP,2013-07-23 01:00:00,
2013-07-22 18:05:00,73.2,51.1,29.86,SSW,202,1.3,4.5,46,0.00,,,0.00,WUHU21623XXSP,2013-07-23 01:05:00,
2013-07-22 18:10:00,73.2,51.1,29.86,SSW,202,3.1,3.1,46,0.00,,,0.00,WUHU21623XXSP,2013-07-23 01:10:00,
2013-07-22 18:15:00,73.0,51.5,29.86,SW,225,2.2,3.1,47,0.00,,,0.00,WUHU21623XXSP,2013-07-23 01:15:00,
2013-07-22 18:20:00,72.7,51.2,29.87,SSW,202,1.6,2.7,47,0.00,,,0.00,WUHU21623XXSP,2013-07-23 01:20:00,
2013-07-22 18:30:00,71.8,51.5,29.87,WNW,292,0.0,2.9,49,0.00,,,0.00,WUHU21623XXSP,2013-07-23 01:30:00,
2013-07-22 18:35:00,71.8,52.1,29.88,SSE,157,1.1,1.1,50,0.00,,,0.00,WUHU21623XXSP,2013-07-23 01:35:00,
2013-07-22 18:40:00,71.8,52.1,29.88,South,180,0.0,1.1,50,0.00,,,0.00,WUHU21623XXSP,2013-07-23 01:40:00,
2013-07-22 18:45:00,71.6,52.5,29.88,SSE,157,0.0,2.0,51,0.00,,,0.00,WUHU21623XXSP,2013-07-23 01:45:00,
2013-07-22 18:50:00,71.4,52.3,29.88,WNW,292,0.0,3.4,51,0.00,,,0.00,WUHU21623XXSP,2013-07-23 01:50:00,
2013-07-22 18:55:00,71.2,52.2,29.88,South,180,2.5,3.4,51,0.00,,,0.00,WUHU21623XXSP,2013-07-23 01:55:00,
2013-07-22 19:00:00,71.2,52.7,29.88,South,180,1.6,2.5,52,0.00,,,0.00,WUHU21623XXSP,2013-07-23 02:00:00,
2013-07-22 19:05:00,70.9,52.7,29.88,South,180,1.6,1.6,52,0.00,,,0.00,WUHU21623XXSP,2013-07-23 02:05:00,
2013-07-22 19:10:00,70.9,52.3,29.89,South,180,4.7,4.7,52,0.00,,,0.00,WUHU21623XXSP,2013-07-23 02:10:00,
2013-07-22 19:15:00,70.5,52.5,29.88,SSE,157,4.7,4.7,53,0.00,,,0.00,WUHU21623XXSP,2013-07-23 02:15:00,
2013-07-22 19:20:00,70.3,52.9,29.88,SSW,202,0.7,4.7,54,0.00,,,0.00,WUHU21623XXSP,2013-07-23 02:20:00,
2013-07-22 19:25:00,70.2,52.7,29.89,South,180,3.6,3.6,54,0.00,,,0.00,WUHU21623XXSP,2013-07-23 02:25:00,
2013-07-22 19:30:00,70.0,53.0,29.89,SE,135,0.0,4.3,55,0.00,,,0.00,WUHU21623XXSP,2013-07-23 02:30:00,
2013-07-22 19:35:00,69.8,53.4,29.88,South,180,0.0,4.3,56,0.00,,,0.00,WUHU21623XXSP,2013-07-23 02:35:00,
2013-07-22 19:40:00,69.6,52.7,29.89,WNW,292,1.1,1.1,55,0.00,,,0.00,WUHU21623XXSP,2013-07-23 02:40:00,
2013-07-22 19:45:00,69.4,52.5,29.89,South,180,0.0,1.1,56,0.00,,,0.00,WUHU21623XXSP,2013-07-23 02:45:00,
2013-07-22 19:50:00,69.1,52.7,29.89,West,270,0.0,0.9,56,0.00,,,0.00,WUHU21623XXSP,2013-07-23 02:50:00,
2013-07-22 19:55:00,69.1,53.2,29.89,South,180,0.0,1.6,57,0.00,,,0.00,WUHU21623XXSP,2013-07-23 02:55:00,
2013-07-22 20:00:00,68.9,53.0,29.90,SW,225,1.3,1.6,57,0.00,,,0.00,WUHU21623XXSP,2013-07-23 03:00:00,
2013-07-22 20:05:00,68.7,53.3,29.89,WNW,292,1.1,1.6,58,0.00,,,0.00,WUHU21623XXSP,2013-07-23 03:05:00,
2013-07-22 20:10:00,68.5,53.6,29.89,WNW,292,2.2,2.2,59,0.00,,,0.00,WUHU21623XXSP,2013-07-23 03:10:00,
2013-07-22 20:15:00,68.4,53.6,29.89,NW,315,1.8,2.2,59,0.00,,,0.00,WUHU21623XXSP,2013-07-23 03:15:00,
2013-07-22 20:20:00,68.4,54.0,29.89,SW,225,2.2,2.2,60,0.00,,,0.00,WUHU21623XXSP,2013-07-23 03:20:00,
2013-07-22 20:25:00,68.2,53.8,29.89,NW,315,0.9,2.2,60,0.00,,,0.00,WUHU21623XXSP,2013-07-23 03:25:00,
2013-07-22 20:30:00,67.8,53.9,29.89,NW,315,2.7,2.7,61,0.00,,,0.00,WUHU21623XXSP,2013-07-23 03:30:00,
2013-07-22 20:35:00,67.6,53.7,29.89,West,270,0.0,2.7,61,0.00,,,0.00,WUHU21623XXSP,2013-07-23 03:35:00,
2013-07-22 20:40:00,67.3,53.8,29.89,NNE,22,0.9,2.7,63,0.00,,,0.00,WUHU21623XXSP,2013-07-23 03:40:00,
2013-07-22 20:45:00,67.1,54.0,29.89,WNW,292,1.6,1.6,63,0.00,,,0.00,WUHU21623XXSP,2013-07-23 03:45:00,
2013-07-22 20:51:00,67.1,54.0,29.89,WNW,292,0.0,1.6,63,0.00,,,0.00,WUHU21623XXSP,2013-07-23 03:51:00,
2013-07-22 20:56:00,66.9,54.3,29.89,North,0,0.0,2.7,63,0.00,,,0.00,WUHU21623XXSP,2013-07-23 03:56:00,
2013-07-22 21:01:00,66.9,54.3,29.89,NW,315,0.9,2.7,64,0.00,,,0.00,WUHU21623XXSP,2013-07-23 04:01:00,
2013-07-22 21:06:00,66.7,54.1,29.89,WNW,292,0.0,1.3,64,0.00,,,0.00,WUHU21623XXSP,2013-07-23 04:06:00,
2013-07-22 21:11:00,66.6,54.4,29.89,WNW,292,0.0,1.3,65,0.00,,,0.00,WUHU21623XXSP,2013-07-23 04:11:00,
2013-07-22 21:16:00,66.6,54.4,29.90,WNW,292,1.6,1.6,65,0.00,,,0.00,WUHU21623XXSP,2013-07-23 04:16:00,
2013-07-22 21:21:00,66.6,54.8,29.90,West,270,0.0,1.6,66,0.00,,,0.00,WUHU21623XXSP,2013-07-23 04:21:00,
2013-07-22 21:26:00,66.4,54.6,29.89,SW,225,0.0,0.9,66,0.00,,,0.00,WUHU21623XXSP,2013-07-23 04:26:00,
2013-07-22 21:31:00,66.4,54.6,29.90,SSW,202,0.0,0.9,66,0.00,,,0.00,WUHU21623XXSP,2013-07-23 04:31:00,
2013-07-22 21:36:00,66.4,54.6,29.90,NNW,337,0.0,0.0,66,0.00,,,0.00,WUHU21623XXSP,2013-07-23 04:36:00,
2013-07-22 21:41:00,66.4,55.0,29.90,WNW,292,2.5,2.5,67,0.00,,,0.00,WUHU21623XXSP,2013-07-23 04:41:00,
2013-07-22 21:46:00,66.4,55.0,29.90,NNW,337,0.0,2.5,67,0.00,,,0.00,WUHU21623XXSP,2013-07-23 04:46:00,
2013-07-22 21:51:00,66.2,54.9,29.90,NE,45,0.0,0.0,67,0.00,,,0.00,WUHU21623XXSP,2013-07-23 04:51:00,
2013-07-22 21:56:00,66.2,55.3,29.90,ENE,67,0.0,0.0,68,0.00,,,0.00,WUHU21623XXSP,2013-07-23 04:56:00,
2013-07-22 22:01:00,66.2,55.3,29.89,NNW,337,0.0,0.0,68,0.00,,,0.00,WUHU21623XXSP,2013-07-23 05:01:00,
2013-07-22 22:06:00,66.4,55.9,29.89,NE,45,0.0,0.0,69,0.00,,,0.00,WUHU21623XXSP,2013-07-23 05:06:00,
2013-07-22 22:11:00,66.2,55.7,29.89,North,0,0.0,0.0,69,0.00,,,0.00,WUHU21623XXSP,2013-07-23 05:11:00,
2013-07-22 22:16:00,66.2,55.7,29.89,North,0,0.0,0.0,69,0.00,,,0.00,WUHU21623XXSP,2013-07-23 05:16:00,
2013-07-22 22:21:00,66.0,56.0,29.89,NE,45,0.0,0.0,70,0.00,,,0.00,WUHU21623XXSP,2013-07-23 05:21:00,
2013-07-22 22:26:00,66.0,56.0,29.90,NE,45,0.0,0.0,70,0.00,,,0.00,WUHU21623XXSP,2013-07-23 05:26:00,
2013-07-22 22:31:00,66.0,56.0,29.90,NE,45,0.0,0.0,70,0.00,,,0.00,WUHU21623XXSP,2013-07-23 05:31:00,
2013-07-22 22:36:00,66.0,56.3,29.90,ESE,112,0.0,0.0,71,0.00,,,0.00,WUHU21623XXSP,2013-07-23 05:36:00,
2013-07-22 22:41:00,66.0,56.3,29.90,East,90,0.0,0.0,71,0.00,,,0.00,WUHU21623XXSP,2013-07-23 05:41:00,
2013-07-22 22:46:00,66.0,56.7,29.91,East,90,0.0,0.0,72,0.00,,,0.00,WUHU21623XXSP,2013-07-23 05:46:00,
2013-07-22 22:51:00,65.8,56.9,29.91,East,90,0.0,0.0,73,0.00,,,0.00,WUHU21623XXSP,2013-07-23 05:51:00,
2013-07-22 22:56:00,65.8,57.3,29.90,ENE,67,0.0,0.0,74,0.00,,,0.00,WUHU21623XXSP,2013-07-23 05:56:00,
2013-07-22 23:01:00,65.8,57.3,29.91,ENE,67,0.0,0.0,74,0.00,,,0.00,WUHU21623XXSP,2013-07-23 06:01:00,
2013-07-22 23:06:00,65.8,56.9,29.90,ENE,67,0.0,0.0,73,0.00,,,0.00,WUHU21623XXSP,2013-07-23 06:06:00,
2013-07-22 23:11:00,65.8,57.3,29.91,ENE,67,0.0,0.0,74,0.00,,,0.00,WUHU21623XXSP,2013-07-23 06:11:00,
2013-07-22 23:16:00,65.8,56.9,29.91,NE,45,0.0,0.0,73,0.00,,,0.00,WUHU21623XXSP,2013-07-23 06:16:00,
2013-07-22 23:21:00,65.7,57.1,29.90,NE,45,0.0,0.0,74,0.00,,,0.00,WUHU21623XXSP,2013-07-23 06:21:00,
2013-07-22 23:26:00,65.5,56.9,29.90,North,0,0.0,0.0,74,0.00,,,0.00,WUHU21623XXSP,2013-07-23 06:26:00,
2013-07-22 23:31:00,65.5,56.9,29.90,North,0,0.0,0.0,74,0.00,,,0.00,WUHU21623XXSP,2013-07-23 06:31:00,
2013-07-22 23:36:00,65.5,57.3,29.90,NNE,22,0.0,0.0,75,0.00,,,0.00,WUHU21623XXSP,2013-07-23 06:36:00,
2013-07-22 23:41:00,65.5,56.9,29.89,NNE,22,0.0,0.0,74,0.00,,,0.00,WUHU21623XXSP,2013-07-23 06:41:00,
2013-07-22 23:46:00,65.5,57.3,29.89,NNE,22,0.0,0.0,75,0.00,,,0.00,WUHU21623XXSP,2013-07-23 06:46:00,
2013-07-22 23:51:00,65.3,57.1,29.88,NNW,337,0.0,0.0,75,0.00,,,0.00,WUHU21623XXSP,2013-07-23 06:51:00,
2013-07-22 23:56:00,65.1,57.7,29.89,West,270,0.0,0.0,77,0.00,,,0.00,WUHU21623XXSP,2013-07-23 06:56:00,